Simultaneous Nadir Overpasses (SNOs) Predictions

Prediction of SNOs between NOAA-21 and NOAA-19 Satellite Orbit:

Table of predicted SNOs for the next 14.0 days since TLE Epoch: 7/6/2024
Index Date (NOAA-21) Time (NOAA-21) Lat,Lon (NOAA-21) SZA (NOAA-21 ) Date (NOAA-19) Time (NOAA-19) Lat,Lon (NOAA-19) SZA (NOAA-19 ) Distance(km) Time Diff (sec)
1 07/17/2024 21:53:12 72.64,-156.40 51.85 07/17/2024 21:52:01 72.61,-157.82 51.93 47.38 71
2 07/17/2024 22:44:03 -72.98, 10.20 127.77 07/17/2024 22:42:49 -72.95, 10.21 127.78 3.16 74
3 07/17/2024 23:34:49 73.00, 177.48 52.26 07/17/2024 23:33:51 73.00, 177.55 52.27 2.35 58
4 07/18/2024 00:25:33 -72.98, -15.18 127.76 07/18/2024 00:24:46 -72.99, -15.19 127.73 1.28 47
5 07/18/2024 01:16:19 73.00, 152.10 52.27 07/18/2024 01:15:49 72.99, 152.05 52.28 1.87 30
6 07/18/2024 02:07:04 -73.04, -40.67 127.69 07/18/2024 02:06:43 -73.04, -40.58 127.68 2.85 21
7 07/18/2024 02:57:50 73.05, 126.61 52.34 07/18/2024 02:57:46 73.03, 126.65 52.32 2.48 4
8 07/18/2024 03:48:34 -73.04, -66.05 127.67 07/18/2024 03:48:41 -73.03, -66.08 127.68 1.54 7
9 07/18/2024 04:39:20 73.05, 101.23 52.36 07/18/2024 04:39:43 73.08, 101.26 52.37 2.65 23
10 07/18/2024 05:30:05 -73.09, -91.54 127.60 07/18/2024 05:30:38 -73.07, -91.48 127.63 2.91 33
11 07/18/2024 06:20:50 73.06, 75.85 52.38 07/18/2024 06:21:41 73.07, 75.76 52.38 3.20 51
12 07/18/2024 07:11:35 -73.09,-116.92 127.58 07/18/2024 07:12:35 -73.11,-116.87 127.58 2.73 60
13 07/18/2024 08:02:23 73.21, 50.14 52.56 07/18/2024 08:03:36 73.21, 50.59 52.51 14.66 73
14 07/18/2024 08:53:15 -73.60,-143.42 127.01 07/18/2024 08:54:24 -73.55,-141.34 127.20 65.78 69



Historial Predications of SNOs between NOAA-21 and NOAA-19
